Flag for U.S.A. Weather past 2 weeks in Coeur d'Alene, Idaho, U.S.A.

70 °F


Feels Like: 70 °F
Forecast: 57 / 74 °F
Wind: 6 mph from Southwest

Location: Coeur d'Alene Weather Reporting System

Current Time: Oct 9, 2015 at 5:46:57 PM

Latest Report: Oct 9, 2015 at 5:15 PM

Visibility: 10 mi

Pressure: 29.97 "Hg (27.77 "Hg at 655m altitude)

Humidity: 50%

Dew point: 50 °F

Location of Coeur d'AleneLocation

Historic Weather in Coeur d'Alene — Graph


Coeur d'Alene temperature yesterday

Maximum temperature yesterday: 66 °F (at 3:35 PM)
Minimum temperature yesterday: 54 °F (at 1:15 AM)
Average temperature yesterday: 58 °F

Past Weeks' High & Low Weather Summary

High81 °F (Sep 25, 1:55 PM)94% (Oct 7, 7:15 PM)30.28 "Hg (Oct 7, 7:15 PM)
Low30 °F (Sep 27, 5:55 AM)10% (Sep 25, 9:15 PM)29.84 "Hg (Oct 2, 7:15 PM)
Average57 °F52%30.01 "Hg
* Reported Sep 24 4:15 PM — Oct 9 4:35 PM, Coeur d'Alene, Weather by CustomWeather, © 2015

Note: Actual official high and low records may vary slightly from our data, if they occured in-between our weather recording intervals... More about our weather records


Coeur d'Alene weather history for previous 24 hours

Time TempWeatherWind HumidityBarometerVisibility
4:35 PM
Fri, Oct 9
73 °FScattered clouds.10 mph41%29.98 "Hg10 mi
4:15 PM73 °FSunny.12 mph44%29.98 "Hg10 mi
3:55 PM73 °FSunny.8 mph47%29.98 "Hg10 mi
3:35 PM73 °FPassing clouds.9 mph47%29.98 "Hg10 mi
3:15 PM73 °FPassing clouds.10 mph50%29.98 "Hg10 mi
2:15 PM73 °FScattered clouds.5 mph50%29.98 "Hg10 mi
1:55 PM73 °FPassing clouds.7 mph50%29.98 "Hg10 mi
1:35 PM72 °FSunny.5 mph53%29.98 "Hg10 mi
1:15 PM73 °FSunny.9 mph50%29.98 "Hg10 mi
12:55 PM72 °FSunny.7 mph53%29.99 "Hg10 mi
12:35 PM70 °FSunny.6 mph53%30.00 "Hg10 mi
12:15 PM68 °FSunny.5 mph56%30.01 "Hg10 mi
11:55 AM66 °FSunny.7 mph60%30.01 "Hg10 mi
11:35 AM66 °FSunny.3 mph60%30.01 "Hg10 mi
11:15 AM66 °FSunny.No wind64%30.02 "Hg10 mi
10:55 AM64 °FSunny.3 mph73%30.03 "Hg10 mi
10:35 AM63 °FSunny.7 mph73%30.03 "Hg10 mi
10:15 AM61 °FSunny.12 mph83%30.03 "Hg10 mi
9:55 AM57 °FSunny.9 mph94%30.04 "Hg10 mi
9:35 AM55 °FPassing clouds.8 mph88%30.05 "Hg10 mi
9:15 AM55 °FPartly sunny.8 mph88%30.04 "Hg10 mi
8:55 AM54 °FLow clouds.9 mph94%30.05 "Hg7 mi
8:35 AM54 °FLow clouds.10 mph94%30.04 "Hg1 mi
8:15 AM52 °FLow clouds.7 mph94%30.04 "Hg1 mi
7:35 AM52 °FLow clouds.6 mph88%30.05 "Hg0 mi
7:15 AM52 °FLow clouds.8 mph88%30.05 "Hg1 mi
6:55 AM52 °FLow clouds.8 mph94%30.05 "Hg0 mi
6:35 AM52 °FLow clouds.9 mph94%30.06 "Hg1 mi
6:15 AM52 °FPassing clouds.7 mph88%30.06 "Hg10 mi
5:55 AM52 °FClear.7 mph88%30.06 "Hg10 mi
5:35 AM52 °FClear.8 mph88%30.07 "Hg10 mi
5:15 AM52 °FClear.12 mph88%30.07 "Hg10 mi
4:55 AM52 °FClear.9 mph88%30.08 "Hg10 mi
4:35 AM52 °FClear.9 mph88%30.09 "Hg10 mi
4:15 AM52 °FClear.9 mph88%30.09 "Hg10 mi
3:55 AM52 °FClear.8 mph88%30.09 "Hg10 mi
3:35 AM54 °FClear.6 mph82%30.09 "Hg10 mi
3:15 AM54 °FClear.8 mph88%30.10 "Hg10 mi
2:55 AM54 °FClear.10 mph88%30.11 "Hg10 mi
2:35 AM54 °FClear.9 mph88%30.12 "Hg10 mi
2:15 AM54 °FClear.10 mph88%30.12 "Hg10 mi
1:55 AM54 °FClear.8 mph88%30.12 "Hg10 mi
1:35 AM54 °FClear.10 mph88%30.12 "Hg10 mi
1:15 AM54 °FClear.10 mph88%30.12 "Hg10 mi
12:55 AM54 °FClear.9 mph88%30.12 "Hg10 mi
12:35 AM54 °FClear.7 mph88%30.12 "Hg10 mi
12:15 AM55 °FClear.8 mph88%30.13 "Hg10 mi
11:55 PM
Thu, Oct 8
55 °FClear.9 mph82%30.13 "Hg10 mi
11:35 PM55 °FClear.9 mph88%30.13 "Hg10 mi
11:15 PM55 °FClear.9 mph88%30.13 "Hg10 mi
10:55 PM55 °FClear.6 mph88%30.13 "Hg10 mi
10:35 PM57 °FClear.8 mph82%30.13 "Hg10 mi
10:15 PM57 °FClear.9 mph82%30.13 "Hg10 mi
9:55 PM57 °FClear.12 mph82%30.14 "Hg10 mi
9:35 PM57 °FClear.9 mph82%30.14 "Hg10 mi
9:15 PM57 °FClear.9 mph82%30.14 "Hg10 mi
8:35 PM59 °FClear.6 mph77%30.16 "Hg10 mi
7:55 PM61 °FClear.9 mph77%30.16 "Hg10 mi
7:35 PM61 °FClear.8 mph77%30.17 "Hg10 mi
7:15 PM61 °FClear.9 mph72%30.18 "Hg10 mi
6:55 PM59 °FSunny.8 mph77%30.17 "Hg10 mi
6:35 PM61 °FSunny.10 mph77%30.17 "Hg10 mi
6:15 PM63 °FSunny.12 mph73%30.17 "Hg10 mi
5:55 PM63 °FSunny.9 mph73%30.19 "Hg10 mi
5:35 PM63 °FSunny.7 mph73%30.20 "Hg10 mi
5:15 PM64 °FSunny.9 mph73%30.20 "Hg10 mi
Weather by CustomWeather, © 2015

See weather overviewHow to use our weather pages